Temperature
20 19 19 19 19 19 20 20 20 20 19 19 19 19 19 19 19 19 19 19 18 18 18 18 18 18 18 18 18 18 18 18 17 17 17 17 17 17 17 17 17 17 17
21 20 20 19 19 19 20 20 20 20 19 19 19 19 19 19 19 19 19 18 18 18 18 18 18 18 18 18 18 18 17 17 17 17 17 17 17 17 17 17 17 17 17
21 20 20 19 19 19 19 19 19 19 19 19 19 19 19 19 19 19 18 18 18 18 18 18 18 18 18 18 18 17 17 17 17 17 17 17 17 17 17 17 17 16 16
21 20 20 19 19 19 19 19 19 19 19 19 19 19 19 19 19 18 18 18 18 18 18 18 18 18 18 17 17 17 17 17 17 17 17 17 17 17 17 17 17 17 16
21 20 20 19 19 19 19 19 19 19 19 19 19 19 19 18 18 18 18 18 18 18 18 18 18 17 17 17 17 17 17 17 17 17 17 17 17 17 17 17 16 16 16
20 20 20 20 19 19 19 19 19 19 19 19 19 18 18 18 18 18 18 18 18 18 18 18 17 17 17 17 17 17 17 17 17 17 17 17 17 17 17 16 16 16 16
20 20 20 19 19 19 19 19 19 19 18 18 18 18 18 18 18 18 18 18 18 18 18 17 17 17 17 17 17 17 17 17 17 17 17 17 17 17 17 16 16 16 16
20 20 19 19 19 19 19 19 19 18 18 18 18 18 18 18 18 18 18 18 18 18 17 17 17 17 17 17 17 17 17 17 17 17 17 17 17 17 17 17 17 16 16
20 20 19 19 19 19 19 19 19 18 18 18 18 18 18 18 18 18 18 18 18 17 17 17 17 17 17 17 17 17 17 17 17 17 17 17 17 17 17 17 17 17 17
20 20 19 19 19 18 18 18 18 18 18 18 18 18 18 18 18 18 18 18 17 17 17 17 17 17 17 17 17 17 17 17 17 17 17 17 17 17 17 17 17 17 17
19 19 19 19 18 18 18 18 18 18 18 18 18 18 18 17 17 17 17 17 17 17 17 17 17 17 17 17 17 17 17 17 17 17 17 17 17 17 17 17 17 17 16
19 19 19 19 18 18 18 18 18 18 18 18 17 17 17 18 17 17 17 17 17 17 17 17 17 17 17 17 17 17 17 17 17 17 17 17 17 17 17 17 17 17 16
19 18 18 18 18 18 18 18 18 18 18 18 17 17 18 18 17 17 17 17 17 17 17 17 17 17 17 17 17 17 17 17 17 17 17 17 17 17 17 17 17 17 16
18 18 18 18 18 18 18 18 18 18 18 18 18 17 17 18 17 17 17 17 17 17 17 17 17 17 17 17 17 17 17 17 17 17 17 17 17 17 17 17 17 17 16
18 18 18 18 18 18 18 18 18 18 18 18 18 17 17 17 17 17 17 17 17 17 17 17 17 17 17 17 17 17 17 17 17 17 17 17 17 17 17 17 17 16 16
19 19 18 18 18 18 18 18 18 18 18 18 17 17 17 17 17 17 17 17 17 17 17 17 17 17 17 17 17 17 17 17 17 17 17 17 17 16 16 16 16 16 16
19 19 18 18 18 18 18 18 18 18 18 18 17 17 17 17 17 17 17 17 17 17 17 17 17 17 17 17 17 17 17 17 17 16 16 16 16 16 16 16 16 16 16
19 18 18 18 18 18 18 18 18 18 17 17 17 17 17 17 17 17 17 17 17 17 17 16 16 16 16 17 17 17 17 16 16 16 16 16 16 16 16 16 16 16 16
19 18 18 18 18 18 18 17 17 17 17 17 17 17 17 17 17 17 17 17 16 16 16 16 16 16 16 16 16 16 16 16 16 16 16 16 16 16 16 16 16 16 16
18 18 18 18 18 18 17 17 17 17 17 17 17 17 17 17 17 17 16 16 16 16 16 16 16 16 16 16 16 16 16 16 16 16 16 16 16 16 16 16 16 16 16
18 18 18 18 18 17 17 17 17 17 17 17 17 17 17 17 17 16 16 16 16 16 16 16 16 16 16 16 16 16 16 16 16 16 16 16 16 16 16 16 16 16 16
18 18 18 18 17 17 17 17 17 17 17 17 17 17 17 17 17 16 16 16 16 16 16 16 16 16 16 16 16 16 16 16 16 16 16 16 16 16 16 16 16 16 16
18 18 18 18 18 17 17 17 17 17 17 17 17 17 17 17 17 16 16 16 16 16 16 16 16 16 16 16 16 16 16 16 16 16 16 16 16 16 16 16 16 16 16
18 18 18 18 18 17 17 17 17 17 17 17 17 17 17 17 16 16 16 16 16 16 16 16 16 16 16 16 16 16 16 16 16 16 17 17 17 17 16 16 16 16 16
18 18 18 18 18 17 17 17 17 17 17 17 17 17 17 17 17 16 16 16 16 16 16 16 16 16 16 16 16 16 16 16 16 16 17 17 17 17 17 16 16 16 16
18 18 18 18 18 17 17 17 17 17 17 17 17 17 17 17 17 16 16 16 16 16 16 16 16 16 16 16 16 16 16 16 16 17 17 17 17 17 17 17 17 16 16
Wind_Speed
9 12 20 19 19 19 19 19 19 20 20 20 20 19 19 18 17 15 14 13 12 12 11 11 12 13 14 14 16 17 17 17 17 17 17 17 17 17 17 18 17 16 18
13 16 21 20 19 19 19 19 19 19 19 19 19 18 18 17 16 15 14 13 12 12 12 12 13 14 15 15 16 16 16 17 16 16 17 16 17 17 17 17 16 15 17
16 16 20 20 20 19 19 19 19 19 19 18 18 17 17 16 15 14 13 13 12 12 12 13 13 14 15 15 16 16 16 16 16 16 15 14 15 16 16 16 16 16 17
16 16 19 21 20 19 19 18 18 18 18 17 17 16 16 15 14 14 13 12 12 12 12 13 13 14 15 15 15 15 15 15 15 15 12 12 12 15 15 16 16 16 16
14 16 20 23 21 20 19 18 18 17 17 17 16 15 15 14 13 13 13 12 12 12 12 13 13 14 14 14 14 14 15 15 15 13 11 11 12 14 15 15 15 15 15
13 15 20 23 22 20 19 18 17 17 16 16 15 15 14 13 13 12 12 12 12 12 12 13 13 14 14 13 13 13 13 13 13 11 11 11 11 14 14 14 15 15 14
13 13 19 22 21 20 19 18 17 16 16 16 15 14 13 13 13 12 12 12 12 12 12 12 13 13 13 12 12 12 12 13 12 11 10 9 11 13 14 14 14 14 13
14 12 17 22 21 20 19 18 17 16 15 15 14 13 13 13 12 12 12 12 12 12 12 11 12 11 11 11 11 11 12 13 11 10 9 9 11 13 13 13 13 13 13
12 10 12 17 19 20 19 18 17 16 15 14 14 13 13 12 12 12 11 11 11 11 11 11 11 10 10 9 10 10 11 12 11 9 9 8 11 12 12 12 12 12 12
10 9 9 12 14 15 16 18 17 16 15 14 14 13 13 12 12 11 10 10 11 11 10 10 9 9 8 9 9 9 10 11 10 8 7 8 11 11 12 12 11 11 11
11 8 9 9 10 12 13 16 16 16 15 14 13 13 11 9 9 9 9 10 10 10 9 9 8 8 8 8 8 9 10 9 9 7 7 9 10 11 11 11 11 10 10
13 10 8 9 9 10 11 11 11 11 12 10 9 10 10 9 8 7 8 9 9 9 8 8 8 8 7 7 7 8 8 8 7 7 8 10 10 10 10 10 10 10 10
13 11 9 9 8 7 6 8 7 8 9 9 9 10 10 8 6 5 4 5 6 6 6 6 6 6 6 5 5 6 7 7 6 6 8 10 10 9 10 10 10 10 10
13 11 9 9 8 7 7 6 6 6 6 6 8 10 9 5 4 4 3 4 4 4 5 4 4 4 5 5 5 5 6 6 6 6 7 10 10 10 10 9 9 9 9
12 11 10 9 9 7 6 5 6 5 6 7 8 9 9 5 4 3 3 3 3 4 4 3 3 3 3 3 4 5 5 6 6 6 6 9 9 10 9 9 9 9 9
13 13 11 10 8 7 5 5 6 6 7 7 7 8 9 7 5 4 3 3 3 3 3 3 3 3 2 3 3 4 4 5 5 6 5 7 9 9 9 9 9 9 9
13 12 11 10 9 8 7 6 6 7 8 6 7 9 9 8 7 5 4 3 3 4 4 3 3 3 2 2 2 3 3 4 4 4 5 5 6 8 9 9 9 9 9
12 12 12 11 10 9 7 5 5 6 7 6 7 8 9 9 8 6 4 3 4 4 4 3 3 2 2 2 2 1 2 2 3 4 5 5 5 6 8 9 9 9 9
13 13 12 10 10 9 7 5 5 5 5 6 8 8 9 9 10 7 4 4 5 4 3 3 2 2 2 2 2 1 1 1 1 3 4 5 6 6 6 8 9 10 9
11 11 11 10 9 9 6 5 4 4 4 5 6 7 9 9 10 8 5 5 6 4 3 2 3 2 2 2 2 2 1 0 1 2 3 4 5 6 6 6 7 8 9
10 11 11 11 9 8 6 5 5 4 4 4 4 7 9 9 10 8 5 5 5 4 4 4 3 3 2 2 3 2 2 2 0 1 2 2 4 6 6 7 7 7 7
12 12 11 11 10 9 7 5 4 4 3 3 3 5 7 9 9 8 6 5 5 4 4 4 3 3 2 1 3 2 2 3 2 1 1 2 4 4 6 7 8 8 8
12 13 12 10 9 9 8 6 5 4 3 2 3 3 5 8 9 8 8 6 5 5 5 4 4 5 3 1 1 3 3 3 2 2 2 2 2 3 4 5 7 8 9
11 10 10 10 10 10 9 9 9 6 5 5 5 4 5 7 8 9 8 7 6 5 5 5 4 3 4 3 1 1 1 3 2 1 2 2 2 3 4 4 6 7 9
10 9 9 9 9 9 9 9 8 6 4 4 4 5 5 4 6 8 8 7 6 5 5 5 4 4 3 4 3 2 2 1 1 2 1 2 2 2 3 4 5 6 8
8 9 9 10 9 9 10 9 9 9 7 7 6 6 5 3 3 5 7 6 6 5 5 5 5 5 3 3 3 3 3 2 2 2 2 2 2 2 2 3 4 6 8
Wind_Direction
157 155 151 145 137 131 126 123 122 120 121 122 123 125 127 128 129 128 127 125 123 120 115 114 115 114 112 112 116 120 119 119 118 116 114 113 112 110 109 108 106 106 108
148 153 151 146 140 135 131 128 126 124 124 124 125 127 128 128 128 127 127 127 124 121 117 116 117 117 116 116 118 119 120 120 118 118 116 113 113 111 110 110 110 112 111
144 150 150 147 143 139 135 132 130 128 128 127 128 129 129 129 130 129 129 128 125 122 120 119 119 119 119 119 119 120 119 117 116 115 110 107 112 113 114 114 112 111 111
144 147 150 149 146 143 140 137 135 133 131 130 131 131 131 132 132 131 130 129 127 124 123 121 120 120 121 120 121 120 118 115 113 109 105 109 113 115 116 115 113 112 111
143 147 154 152 150 147 145 142 138 137 136 135 134 134 134 134 133 132 132 130 128 126 126 124 122 123 123 124 124 122 118 116 112 106 104 106 113 118 116 116 115 114 113
142 147 156 154 153 151 149 146 143 142 141 139 137 136 136 136 136 134 132 130 129 128 126 124 123 124 125 125 126 124 120 116 111 108 107 111 118 121 119 117 116 115 115
142 147 156 155 155 154 153 150 148 147 145 143 140 139 138 137 135 133 130 129 128 128 127 125 124 126 128 128 128 126 125 123 117 113 113 116 121 122 122 120 118 117 116
146 148 155 157 157 157 156 153 151 151 149 147 145 144 141 138 137 133 132 130 129 128 127 126 126 127 129 128 127 129 129 130 128 123 121 124 128 126 125 124 123 121 118
143 145 150 157 159 159 158 156 155 155 153 151 150 148 144 142 140 137 136 134 131 130 129 128 127 127 128 127 127 131 132 135 131 130 132 131 134 132 130 128 127 126 123
142 144 144 149 152 155 159 159 158 157 157 156 154 152 148 146 144 141 138 137 133 131 131 129 126 124 123 123 124 128 132 133 134 135 137 144 144 141 138 136 133 131 129
150 148 144 143 145 149 154 162 160 158 159 159 158 154 146 136 136 138 143 142 137 136 132 128 123 119 114 115 120 123 124 132 139 140 148 156 154 148 145 143 140 137 134
161 158 149 146 145 148 157 155 152 152 152 149 148 140 131 129 133 138 151 148 142 138 135 128 120 111 102 98 106 114 126 138 142 149 160 164 163 158 153 149 147 143 140
162 162 157 152 147 146 141 140 137 136 138 139 139 135 133 127 126 123 126 124 122 121 110 108 100 99 105 109 109 115 131 141 147 158 169 173 171 168 162 158 155 153 151
163 166 158 154 153 148 138 139 135 135 137 138 142 143 139 132 129 132 125 117 107 109 105 101 105 109 112 121 128 129 138 147 152 159 177 178 177 176 170 168 166 164 163
166 164 161 158 156 149 140 146 148 146 150 149 151 155 156 150 150 147 140 129 127 126 124 118 116 120 118 120 132 142 150 156 159 165 182 187 186 186 181 178 178 176 174
170 165 163 163 157 151 154 157 157 158 157 156 161 168 170 167 164 158 152 148 150 152 145 132 122 122 120 122 125 141 156 162 166 168 183 198 198 196 193 192 190 188 189
168 162 164 165 160 160 165 168 162 163 161 163 171 175 176 176 172 164 160 165 173 163 144 121 104 101 109 113 119 133 148 162 166 175 188 198 203 207 205 204 202 200 200
160 164 168 174 170 168 167 167 159 163 162 167 172 173 179 182 179 165 165 175 171 154 139 128 117 102 100 112 118 125 135 155 176 189 193 199 207 213 215 214 212 211 212
164 167 170 174 173 170 164 159 149 154 158 165 168 171 179 182 183 171 169 169 161 145 138 148 115 125 135 135 130 98 107 151 186 206 207 211 215 219 223 227 226 224 222
166 169 172 172 171 162 155 142 137 141 150 157 165 172 176 177 177 165 157 160 154 140 138 129 118 96 112 129 108 77 39 349 211 224 228 222 221 225 227 232 234 235 235
168 170 175 172 169 160 158 160 161 170 165 162 165 171 173 169 167 160 157 153 152 153 156 147 123 112 98 111 96 54 16 15 312 252 244 233 231 229 226 229 232 235 239
177 178 179 176 168 167 168 159 154 149 151 152 152 161 168 165 164 166 159 159 155 140 136 145 138 128 108 115 126 105 30 348 340 332 265 240 241 232 230 231 229 231 235
181 181 181 177 169 167 158 141 131 113 100 128 157 167 169 169 168 164 162 153 153 154 162 166 158 148 144 118 128 141 149 215 288 321 305 272 257 234 238 238 234 234 235
183 177 172 171 169 164 160 166 166 169 174 186 177 174 164 167 167 167 162 157 160 160 163 172 162 154 144 150 128 91 137 153 154 293 319 304 281 247 244 242 241 240 238
175 172 169 166 169 164 170 175 172 174 174 159 153 160 164 164 167 167 162 160 163 162 165 164 156 156 153 156 159 147 120 90 111 148 258 308 312 276 255 246 247 246 243
162 165 166 169 170 167 173 177 177 176 167 161 169 172 170 164 166 169 164 163 165 163 165 166 163 161 161 151 152 154 156 158 172 164 192 247 276 288 278 255 245 245 243
Height
1501 1505 1508 1511 1514 1516 1518 1520 1521 1523 1524 1526 1528 1529 1531 1532 1534 1535 1536 1537 1539 1539 1540 1541 1542 1543 1543 1544 1545 1546 1547 1548 1548 1549 1550 1551 1552 1553 1554 1555 1556 1557 1558
1500 1505 1509 1512 1515 1517 1519 1521 1522 1524 1526 1527 1529 1531 1532 1534 1535 1537 1538 1539 1540 1541 1542 1543 1543 1544 1545 1546 1547 1548 1549 1550 1551 1552 1553 1554 1555 1556 1557 1558 1559 1560 1561
1500 1505 1509 1512 1515 1518 1520 1522 1524 1525 1527 1529 1530 1532 1534 1535 1537 1538 1539 1540 1541 1542 1543 1544 1545 1546 1547 1548 1549 1550 1551 1552 1553 1554 1555 1556 1557 1558 1559 1560 1561 1562 1563
1501 1505 1509 1513 1516 1519 1521 1523 1525 1527 1528 1530 1532 1533 1535 1537 1538 1540 1541 1542 1543 1544 1545 1546 1546 1548 1549 1550 1551 1552 1553 1555 1556 1557 1558 1559 1560 1561 1562 1563 1564 1565 1566
1502 1506 1510 1513 1517 1519 1522 1524 1526 1528 1530 1531 1533 1535 1537 1538 1540 1541 1542 1543 1544 1545 1546 1547 1548 1550 1551 1552 1553 1555 1556 1557 1558 1559 1560 1561 1562 1563 1564 1565 1566 1567 1568
1503 1507 1510 1514 1517 1520 1523 1525 1527 1529 1531 1533 1535 1536 1538 1540 1541 1543 1544 1545 1546 1547 1548 1549 1550 1551 1553 1554 1556 1557 1558 1559 1560 1561 1562 1563 1564 1566 1566 1568 1569 1570 1571
1504 1508 1511 1515 1518 1521 1523 1526 1528 1530 1533 1534 1536 1538 1540 1541 1543 1544 1545 1546 1547 1548 1550 1551 1552 1554 1555 1557 1558 1559 1560 1561 1562 1563 1564 1566 1567 1568 1569 1570 1571 1572 1573
1504 1508 1512 1515 1518 1521 1524 1527 1529 1532 1534 1536 1537 1539 1541 1542 1544 1545 1547 1548 1549 1550 1551 1553 1554 1556 1557 1559 1560 1561 1562 1563 1564 1565 1567 1568 1569 1570 1571 1572 1573 1574 1575
1505 1509 1512 1515 1519 1522 1525 1528 1530 1533 1535 1537 1539 1541 1542 1544 1545 1547 1548 1549 1550 1552 1553 1555 1556 1558 1559 1561 1562 1563 1564 1565 1566 1567 1568 1570 1571 1572 1573 1574 1575 1576 1577
1505 1508 1512 1515 1519 1522 1525 1528 1531 1533 1536 1538 1540 1542 1543 1545 1547 1548 1549 1551 1552 1553 1555 1557 1558 1560 1561 1563 1564 1565 1566 1567 1568 1569 1570 1571 1572 1574 1575 1576 1577 1578 1579
1505 1508 1511 1515 1518 1522 1525 1529 1531 1534 1536 1539 1541 1543 1545 1546 1548 1549 1551 1552 1553 1555 1556 1558 1559 1561 1563 1564 1565 1567 1568 1569 1570 1571 1572 1573 1574 1575 1576 1577 1578 1579 1580
1503 1507 1511 1514 1518 1522 1525 1528 1531 1534 1537 1539 1541 1543 1545 1547 1549 1550 1552 1553 1555 1556 1557 1559 1561 1562 1564 1565 1566 1568 1569 1570 1571 1572 1573 1574 1575 1577 1578 1578 1580 1581 1582
1502 1506 1510 1514 1518 1522 1525 1528 1531 1534 1537 1540 1542 1544 1546 1548 1549 1551 1553 1554 1556 1557 1558 1560 1561 1563 1565 1566 1568 1569 1570 1571 1572 1573 1574 1575 1576 1577 1579 1580 1581 1582 1583
1502 1506 1511 1515 1518 1521 1525 1528 1531 1534 1537 1540 1542 1544 1547 1548 1550 1552 1554 1555 1557 1558 1560 1561 1563 1564 1565 1567 1568 1570 1571 1572 1573 1574 1575 1576 1577 1578 1579 1580 1581 1582 1584
1501 1505 1510 1515 1518 1522 1525 1528 1532 1535 1538 1540 1543 1545 1547 1549 1551 1553 1554 1556 1557 1559 1561 1562 1563 1565 1566 1568 1569 1570 1572 1573 1574 1575 1575 1576 1577 1578 1580 1581 1582 1583 1584
1500 1504 1509 1514 1518 1521 1525 1528 1531 1535 1538 1540 1543 1545 1547 1550 1552 1553 1555 1556 1558 1560 1561 1563 1564 1566 1567 1568 1569 1571 1572 1573 1574 1575 1576 1577 1578 1579 1580 1581 1582 1583 1584
1497 1503 1508 1513 1517 1520 1524 1528 1531 1534 1537 1540 1543 1545 1547 1550 1552 1554 1555 1557 1558 1560 1561 1563 1564 1566 1567 1568 1570 1571 1572 1573 1574 1575 1576 1577 1578 1578 1579 1581 1582 1583 1584
1496 1501 1506 1511 1516 1519 1523 1528 1531 1534 1537 1540 1542 1545 1547 1550 1552 1554 1555 1557 1558 1560 1561 1563 1564 1566 1567 1568 1569 1571 1572 1573 1574 1575 1576 1577 1577 1578 1579 1580 1581 1582 1583
1496 1500 1505 1509 1514 1518 1522 1526 1530 1534 1536 1539 1542 1544 1547 1549 1551 1553 1555 1557 1558 1560 1561 1563 1564 1565 1567 1568 1569 1570 1571 1572 1573 1574 1575 1576 1577 1578 1579 1580 1581 1581 1582
1495 1499 1503 1508 1512 1517 1521 1525 1529 1532 1535 1538 1541 1543 1546 1548 1551 1553 1555 1556 1558 1559 1561 1562 1564 1565 1567 1568 1569 1570 1571 1572 1573 1573 1574 1575 1576 1577 1578 1579 1580 1580 1581
1494 1498 1502 1506 1510 1515 1519 1523 1527 1530 1533 1537 1539 1542 1545 1547 1550 1552 1554 1556 1557 1559 1560 1562 1563 1565 1566 1567 1569 1570 1570 1571 1572 1573 1573 1574 1575 1576 1577 1578 1578 1579 1580
1492 1495 1499 1504 1509 1513 1517 1521 1525 1529 1532 1535 1538 1541 1544 1546 1549 1551 1553 1555 1556 1558 1559 1561 1563 1564 1565 1567 1568 1569 1570 1572 1571 1572 1572 1573 1574 1575 1576 1577 1577 1578 1579
1490 1493 1497 1502 1507 1511 1516 1520 1524 1527 1531 1534 1536 1539 1542 1545 1547 1550 1552 1553 1555 1557 1558 1560 1562 1563 1564 1566 1567 1569 1569 1569 1570 1571 1571 1572 1573 1574 1575 1575 1576 1577 1577
1488 1493 1496 1501 1506 1510 1514 1518 1521 1524 1528 1531 1534 1537 1540 1543 1545 1548 1550 1552 1554 1556 1557 1559 1561 1562 1564 1565 1566 1567 1568 1569 1569 1570 1571 1571 1572 1572 1573 1574 1574 1575 1576
1488 1492 1496 1500 1504 1508 1512 1516 1520 1523 1527 1530 1533 1536 1538 1541 1543 1546 1548 1550 1552 1554 1556 1558 1559 1561 1562 1564 1565 1566 1567 1568 1568 1569 1569 1570 1571 1571 1572 1572 1573 1573 1574
1487 1491 1495 1499 1503 1507 1511 1515 1518 1521 1525 1528 1530 1533 1536 1539 1541 1543 1546 1548 1550 1552 1554 1556 1558 1559 1561 1562 1564 1565 1566 1567 1567 1568 1568 1569 1569 1570 1570 1571 1571 1572 1572